Showing default

QIANFAN-109, 68636

Orbit data source: Space-Track

QIANFAN-109, 68636 is a Chinese payload satellite in LEO that was launched on Tue, 07 Apr 2026 UTC via a CHANG ZHENG 8 launch vehicle from the Wenchang Satellite Launch Center (WSC). Payload-class satellites include a variety of spacecraft equipped with specific instruments for various scientific and technological missions. These include communications satellites like Starlink; space stations such as the ISS; scientific satellites like the Hubble; Earth observation satellites from companies like Planet Labs, Umbra, and HawkEye 360; GPS; miniature CubeSats for education and research; and military/defense satellites.

Loading next visibility...
Identifier
68636, 2026-075A
Orbit
LEO
Country
Flag of CNCN / PRC
Related business
Manufacturer
SECM
Mission
Operational spacecraft
Bus & Motor
QIANFAN, Unknown motor
Mass
267 kg wet, ~267 kg dry
Launch date (UTC)
2026-04-07 (2 months ago)
Launch vehicle
CHANG ZHENG 8
Launch site
Wenchang Satellite Launch Center (WSC)
Object type
Payload
Rocket body
Debris
Shape & HBR
Unknown shape, 14.5 m
Radar Cross Section
Large (>1 m²)

Expand to show TLE details & history
Last TLE update: 11 hours ago

TLE from 11 hours ago
0 QIANFAN-109
1 68636U 26075A   26171.40198326  .00000092  00000-0  12345-3 0  9998
2 68636  88.9895 320.6826 0001590 105.7467 254.3860 13.51010849 10225
Epoch: 2026-06-20T09:38Z
TLE epoch observation values (Epoch: 2026-06-20T09:38:51.353Z)
Latitude
0.00001°
Longitude
-92.6485°
Altitude
1,071.814 km
Speed
7.316 km/s
True Right ascension
21h 22m 43s
True Declination
0° 00' 00"
Sunlit
Object was in full shadow at epoch
Visualization orbit readout
Latitude
Unknown
Longitude
Unknown
Altitude
Unknown
Speed
Unknown
Apparent Right ascension
Unknown
Apparent Declination
Unknown
Sunlit
N/A
Visualization observer readout
Local Sidereal Time
07:13:43
Azimuth
Unknown
Elevation
Unknown
Doppler factor
Unknown
Orbital elements
Apogee altitude
1,066.776 km
Perigee altitude
1,064.409 km
Semi-major axis
7,443.73 km
Eccentricity
0.00016
Inclination
88.9895°
RAAN
320.6826°
Arg. of periapsis
105.7467°
True anomaly
254.36845°
Mean anomaly
254.386°
Eccentric anomaly
254.37723°
Mean motion
3.37954 °/min
Orbital period
106.52 mins
BSTAR
0.00012345
Loading maneuver chart data...
Computing Atmospheric mass density...
Loading historical data...
Loading historical data...
Loading historical data...
Loading historical data...
Loading historical data...
Loading historical data...
Loading historical data...

Documentation

Showing up to 5 results
|